This is the latest recevied weather packets stored in our database for station/object K5MJM. If no packets are shown the sender has not sent any weather packets the latest 10 day(s).
| Time | Temp. | Humidity | Pressure | Rain* | Wind** | Luminosity | Snow |
|---|---|---|---|---|---|---|---|
| 1777334718 | 26.11° C | 43% | 1009.4 hPa | 0 mm | - | - | - |
| 1777332318 | 27.78° C | 38% | 1008.7 hPa | 0 mm | - | - | - |
| 1777322718 | 28.89° C | 41% | 1007.8 hPa | 0 mm | - | - | - |
| 1777322119 | 28.89° C | 41% | 1007.8 hPa | 0 mm | - | - | - |
| 1777311318 | 27.22° C | 42% | 1007.5 hPa | 0 mm | - | - | - |
| 1777310738 | 27.22° C | 43% | 1007.4 hPa | 0 mm | - | - | - |
| 1777305318 | 25.56° C | 42% | 1006.6 hPa | 0 mm | - | - | - |
| 1777301118 | 25° C | 48% | 1005.9 hPa | 0 mm | - | - | - |
| 1777298120 | 23.89° C | 66% | 1005.5 hPa | 0 mm | - | - | - |
| 1777296318 | 22.78° C | 71% | 1005.2 hPa | 0 mm | - | - | - |
| 1777294518 | 22.22° C | 74% | 1004.5 hPa | 0 mm | - | - | - |
| 1777289717 | 21.67° C | 74% | 1003 hPa | 0 mm | - | - | - |
| 1777289140 | 21.67° C | 74% | 1003.1 hPa | 0 mm | - | - | - |
| 1777288538 | 22.22° C | 74% | 1002.8 hPa | 0 mm | - | - | - |
| 1777287318 | 22.22° C | 74% | 1002.7 hPa | 0 mm | - | - | - |
| 1777284338 | 22.78° C | 73% | 1002.5 hPa | 0 mm | - | - | - |
| 1777283719 | 22.78° C | 73% | 1002.4 hPa | 0 mm | - | - | - |
| 1777281919 | 22.78° C | 72% | 1002.5 hPa | 0 mm | - | - | - |
| 1777281319 | 22.78° C | 72% | 1002.6 hPa | 0 mm | - | - | - |
| 1777277118 | 23.33° C | 71% | 1002.8 hPa | 0 mm | - | - | - |
| 1777274719 | 23.89° C | 70% | 1003.2 hPa | 0 mm | - | - | - |
| 1777273519 | 23.89° C | 70% | 1003 hPa | 0 mm | - | - | - |
| 1777268720 | 23.89° C | 70% | 1003 hPa | 0 mm | - | - | - |
| 1777268117 | 23.89° C | 70% | 1003.1 hPa | 0 mm | - | - | - |
| 1777267519 | 23.89° C | 70% | 1003.1 hPa | 0 mm | - | - | - |
* Rain latest hour (hover to see other rain measurements)
** Current wind speed in m/s (hover to see current wind gust speed)